Back to catalog

EUTE 70B

AliveCommunicationsGEO
NORAD 39020·PAYLOAD·🇪🇺 EU

Launched Dec 3, 2012 from Sea Launch Platform

Loading…

TLE

FreshSource: Space-Track

Epoch: Sep 14, 2026, 14:08 UTC

1 39020U 12069A   26257.58914108 -.00000052  00000-0  00000-0 0  9998
2 39020   0.0663 343.5471 0003839 192.4767 100.1402  1.00272528 50401

Track EUTE 70B in real time with AllMySat

Download on the App Store